Dewpoint
-17 -16 -16 -14 -13 -11 -7 -4 -0 2 4 5 5 6 6 7 7 8 8 7 8 7 8 7 6 7 7 6 5 5 6 6 6 7 7 7 7 8 7 8 10 11 11 11 11 11 11 11 11 11 11 12
-17 -16 -16 -15 -13 -11 -8 -5 -2 0 2 4 5 5 6 7 7 7 7 8 8 7 8 7 7 7 6 6 6 6 5 5 6 7 8 8 7 7 7 7 7 6 8 9 10 11 11 11 11 11 12 12
-17 -18 -17 -17 -16 -14 -11 -9 -6 -3 -0 2 4 4 5 6 6 6 7 7 7 7 8 8 7 7 7 7 7 7 6 5 6 7 8 8 7 7 8 8 6 5 6 7 8 10 10 11 11 11 11 11
-17 -18 -17 -17 -17 -17 -16 -14 -12 -9 -6 -2 1 3 3 4 5 6 6 6 6 6 7 7 7 7 7 7 7 7 7 6 6 7 7 8 9 9 8 7 7 6 6 6 7 8 8 9 10 10 11 11
-17 -17 -18 -17 -18 -18 -18 -18 -16 -15 -12 -9 -5 -2 1 2 3 4 5 5 5 5 6 7 7 7 7 7 7 7 7 6 6 6 7 8 9 9 9 8 7 5 5 5 6 6 6 7 8 8 10 10
-17 -17 -17 -17 -17 -17 -17 -18 -18 -18 -17 -15 -13 -9 -5 -2 -0 1 2 3 3 3 4 5 6 7 7 7 7 8 8 7 6 7 7 7 8 9 9 9 8 6 6 6 5 5 6 7 6 7 9 9
-17 -17 -16 -17 -17 -17 -17 -17 -17 -17 -18 -18 -17 -16 -13 -9 -6 -4 -2 -0 1 2 2 3 4 5 6 7 7 7 8 7 7 7 8 7 8 8 8 8 8 8 7 7 6 5 6 7 6 6 7 8
-17 -17 -16 -17 -16 -17 -17 -17 -17 -17 -17 -17 -18 -18 -17 -16 -14 -11 -8 -5 -2 0 1 2 2 3 5 6 7 7 7 7 7 8 8 8 8 8 8 8 7 7 7 7 6 6 6 6 6 5 5 6
-16 -17 -16 -17 -17 -17 -17 -17 -17 -17 -17 -17 -17 -17 -18 -18 -18 -17 -15 -12 -9 -5 -2 0 1 2 3 4 5 6 7 7 7 7 7 7 8 8 8 8 7 6 6 6 5 5 5 5 5 5 5 5
-16 -16 -17 -17 -17 -17 -17 -17 -17 -17 -17 -17 -17 -17 -17 -17 -18 -18 -18 -17 -15 -12 -7 -4 -1 -0 0 1 2 4 6 6 7 7 7 7 7 7 7 7 7 6 5 5 5 4 3 4 4 4 4 5
-16 -17 -17 -17 -17 -17 -17 -18 -17 -18 -17 -18 -17 -17 -17 -17 -17 -17 -18 -18 -18 -17 -15 -11 -7 -5 -4 -2 -1 1 3 5 6 6 6 6 6 6 6 6 6 6 6 4 4 4 3 3 4 4 4 5
-17 -17 -17 -17 -18 -18 -18 -19 -19 -19 -20 -19 -19 -19 -18 -17 -17 -17 -18 -19 -19 -19 -19 -17 -15 -12 -10 -7 -5 -3 -0 2 5 6 6 6 6 6 6 6 6 6 6 4 3 3 3 3 3 4 5 6
-18 -18 -19 -21 -22 -23 -24 -24 -24 -25 -26 -25 -24 -24 -23 -21 -20 -19 -18 -19 -20 -20 -21 -20 -20 -18 -16 -13 -11 -8 -5 -2 1 4 5 5 5 6 6 6 6 6 6 5 3 3 3 3 2 2 3 5
-19 -21 -24 -27 -29 -31 -32 -32 -32 -33 -33 -33 -33 -32 -31 -29 -27 -24 -23 -21 -21 -22 -22 -23 -22 -22 -20 -19 -17 -14 -11 -8 -4 -0 3 4 4 5 5 5 5 5 5 5 4 4 4 4 3 2 1 2
-20 -23 -27 -30 -32 -32 -33 -34 -34 -35 -35 -35 -37 -37 -36 -37 -35 -33 -31 -28 -26 -25 -25 -25 -25 -25 -24 -22 -21 -19 -17 -15 -11 -6 -1 2 3 4 5 5 5 5 5 5 4 4 5 5 4 2 -1 -1
-22 -26 -29 -30 -32 -32 -33 -33 -33 -34 -35 -35 -35 -36 -37 -37 -38 -37 -37 -35 -33 -31 -29 -29 -28 -28 -27 -26 -24 -23 -21 -19 -17 -13 -8 -2 1 2 3 4 5 5 5 5 4 4 4 5 5 3 -0 -3
-24 -27 -29 -30 -31 -31 -32 -32 -33 -33 -34 -35 -35 -36 -37 -37 -38 -37 -37 -38 -37 -37 -36 -33 -32 -31 -30 -30 -28 -26 -25 -22 -20 -18 -15 -9 -3 0 2 3 4 5 5 5 5 5 4 4 5 5 3 -2
-25 -27 -27 -28 -28 -30 -31 -32 -32 -33 -33 -34 -35 -35 -35 -36 -37 -37 -37 -37 -38 -38 -37 -37 -35 -34 -33 -32 -31 -30 -28 -26 -24 -21 -19 -16 -10 -3 0 1 3 4 4 5 5 5 4 4 4 5 5 2
-25 -26 -25 -25 -26 -26 -27 -29 -30 -32 -33 -33 -34 -35 -35 -36 -37 -37 -37 -36 -37 -36 -37 -38 -37 -37 -35 -34 -33 -32 -31 -29 -27 -24 -21 -18 -15 -10 -4 -1 1 2 3 4 4 5 5 4 4 4 5 4
-23 -23 -23 -24 -25 -25 -25 -25 -26 -28 -31 -33 -34 -34 -34 -36 -36 -36 -36 -36 -36 -36 -35 -36 -36 -36 -35 -35 -35 -33 -33 -33 -30 -28 -25 -20 -15 -13 -9 -4 -1 0 1 3 3 4 4 4 4 4 4 4
-22 -22 -22 -22 -24 -26 -24 -23 -23 -24 -25 -27 -30 -33 -34 -36 -36 -36 -37 -35 -35 -35 -35 -34 -35 -35 -35 -36 -35 -34 -34 -33 -34 -31 -28 -22 -16 -13 -12 -8 -5 -2 -1 1 2 3 3 4 4 4 3 3
-22 -22 -21 -22 -23 -24 -25 -24 -22 -22 -21 -22 -25 -28 -30 -34 -35 -35 -36 -35 -34 -34 -33 -33 -34 -34 -35 -35 -35 -35 -35 -33 -35 -34 -31 -27 -20 -14 -11 -10 -9 -6 -3 -1 -0 1 2 3 3 3 3 3
-22 -23 -22 -22 -22 -23 -24 -24 -24 -22 -20 -20 -22 -23 -24 -28 -33 -35 -36 -36 -35 -34 -33 -32 -33 -33 -34 -35 -35 -35 -35 -35 -34 -35 -35 -31 -26 -18 -12 -9 -8 -8 -6 -4 -2 -1 -0 1 2 3 3 2
-23 -23 -23 -22 -22 -23 -23 -24 -24 -22 -20 -20 -20 -19 -20 -21 -25 -31 -34 -34 -35 -34 -33 -32 -32 -32 -32 -33 -34 -35 -35 -35 -35 -36 -36 -35 -32 -24 -15 -9 -8 -8 -8 -7 -4 -3 -2 -1 0 1 2 3
-23 -23 -23 -22 -22 -22 -22 -22 -23 -22 -21 -21 -19 -18 -17 -18 -21 -25 -30 -33 -34 -34 -34 -33 -31 -31 -32 -32 -32 -33 -34 -34 -35 -36 -36 -36 -35 -27 -17 -11 -9 -8 -8 -7 -6 -5 -3 -3 -2 -0 1 2
-22 -23 -22 -22 -21 -21 -20 -20 -21 -22 -22 -22 -19 -17 -17 -17 -19 -21 -24 -28 -31 -33 -33 -33 -32 -30 -30 -31 -32 -32 -32 -33 -33 -34 -36 -36 -36 -33 -22 -13 -8 -6 -7 -6 -5 -5 -4 -3 -3 -2 -0 1
-21 -22 -22 -21 -20 -20 -19 -19 -20 -21 -22 -22 -19 -17 -17 -18 -19 -19 -20 -23 -26 -30 -32 -32 -32 -31 -30 -29 -30 -31 -31 -31 -32 -32 -34 -35 -35 -36 -31 -20 -10 -6 -5 -5 -5 -5 -5 -4 -3 -3 -2 -0
-20 -21 -22 -20 -19 -19 -19 -19 -19 -21 -22 -21 -19 -18 -18 -19 -18 -18 -18 -19 -21 -23 -27 -30 -31 -30 -30 -30 -29 -30 -30 -29 -30 -30 -30 -32 -34 -34 -36 -33 -20 -10 -6 -5 -5 -5 -4 -4 -3 -3 -3 -2
-19 -20 -21 -20 -19 -19 -19 -19 -19 -20 -21 -21 -21 -20 -20 -19 -17 -17 -18 -17 -18 -19 -20 -24 -27 -28 -28 -30 -30 -29 -29 -29 -28 -28 -29 -29 -31 -33 -34 -36 -35 -20 -10 -6 -5 -5 -5 -5 -4 -4 -4 -4
-17 -19 -20 -20 -19 -19 -19 -19 -19 -20 -21 -22 -22 -22 -22 -21 -19 -17 -16 -16 -16 -16 -17 -18 -21 -24 -25 -26 -29 -29 -29 -29 -28 -27 -27 -28 -29 -30 -32 -32 -36 -33 -21 -12 -7 -5 -5 -6 -5 -5 -5 -5
-16 -18 -19 -19 -19 -19 -18 -18 -19 -20 -21 -23 -24 -24 -24 -23 -20 -18 -16 -16 -16 -16 -16 -16 -17 -19 -21 -22 -24 -27 -28 -28 -28 -27 -25 -26 -27 -28 -30 -31 -31 -33 -33 -24 -14 -8 -6 -5 -6 -6 -5 -5
Wind_Speed
26 26 27 27 26 25 23 22 21 21 21 20 18 18 19 19 18 17 16 15 13 13 13 14 13 13 15 16 16 16 16 16 15 16 16 17 16 16 17 13 15 21 25 29 31 30 32 34 35 37 39 39
26 27 28 29 28 27 26 24 22 21 21 20 18 18 19 18 17 18 18 16 15 15 15 16 16 16 16 17 17 17 16 15 15 15 15 16 18 19 18 15 15 18 15 10 12 16 22 27 31 34 35 33
26 27 29 30 30 29 29 27 25 23 22 21 19 17 19 20 19 19 19 19 18 17 16 18 19 19 19 19 20 19 17 15 15 15 15 16 19 19 18 17 17 18 16 13 8 6 10 13 20 27 30 30
27 28 29 30 30 31 31 30 29 27 24 23 21 19 19 20 21 20 20 21 20 20 19 19 20 20 20 20 21 20 19 17 16 15 14 15 16 18 18 17 16 16 15 14 12 10 9 7 9 16 20 23
28 28 29 30 30 31 31 32 31 30 29 26 24 22 20 21 22 22 22 23 23 24 23 22 22 22 21 20 21 21 19 18 17 16 14 12 13 17 20 19 20 21 19 16 16 16 12 9 9 9 9 12
27 28 29 30 31 31 32 32 32 32 32 31 29 27 24 23 23 24 24 24 24 25 26 25 23 23 22 20 20 20 20 19 18 16 15 14 15 17 17 15 16 18 18 16 16 18 14 9 11 12 10 8
28 28 29 30 30 31 32 32 33 32 32 32 32 31 30 27 26 27 26 26 25 25 26 25 24 24 23 20 18 18 19 18 17 18 18 17 17 15 14 12 11 12 13 13 14 17 15 12 13 13 13 13
28 29 29 29 30 30 31 32 33 33 33 33 33 33 33 32 30 29 29 28 27 26 26 26 26 26 25 22 20 19 19 16 14 17 19 19 18 16 14 13 10 9 11 14 14 15 16 15 16 15 15 17
28 28 29 29 30 30 30 31 31 33 33 33 34 34 34 33 33 31 30 30 29 28 27 27 27 27 27 26 24 22 21 18 14 14 17 20 20 19 17 14 12 11 13 15 16 15 15 16 18 18 15 16
27 28 29 30 31 31 31 31 31 32 32 33 34 34 34 34 34 33 33 32 31 31 29 28 27 27 28 28 27 25 24 20 15 14 16 18 21 23 21 19 17 16 15 16 16 16 15 14 16 18 17 15
27 28 29 30 30 31 32 32 32 32 33 33 33 33 34 34 35 35 34 33 32 32 32 30 29 29 29 29 29 27 27 22 16 14 14 15 18 22 24 24 23 20 18 17 16 15 14 14 15 16 17 17
28 29 30 30 30 31 32 32 33 33 33 33 33 33 33 33 34 35 35 35 34 33 33 32 32 31 30 30 29 29 28 25 20 16 14 13 13 16 19 21 21 18 17 17 16 14 13 13 16 17 18 18
30 31 32 32 32 32 32 32 32 32 32 32 32 32 32 33 33 34 35 35 35 34 33 33 33 33 32 30 30 30 29 28 25 22 19 17 15 14 14 15 18 19 17 17 17 16 15 15 15 17 19 19
31 33 34 34 33 33 32 31 31 30 30 30 31 31 31 31 32 32 33 34 35 34 33 33 32 32 33 32 31 30 30 30 28 26 24 24 22 20 18 15 14 17 20 19 19 18 18 17 17 17 19 21
31 33 33 33 32 32 32 31 31 30 30 29 29 30 30 30 30 30 31 32 33 34 34 33 32 32 32 32 32 31 31 31 30 28 26 26 25 24 24 21 15 13 16 19 20 21 20 19 19 18 19 22
32 33 33 32 31 31 31 31 30 30 30 30 30 30 30 30 29 29 29 30 31 32 33 33 33 32 31 31 31 31 30 30 30 29 27 25 25 25 26 25 21 16 17 17 17 20 22 22 21 20 20 22
33 34 34 33 32 32 30 30 29 29 29 30 30 30 30 30 30 30 29 29 29 30 32 33 33 32 31 31 30 30 30 29 30 30 29 27 25 25 26 26 24 22 22 20 18 18 19 22 23 22 22 22
33 33 33 33 33 33 32 31 30 29 29 29 30 30 30 31 31 31 30 29 29 29 30 31 32 33 32 31 31 30 29 29 28 29 30 30 28 25 25 26 25 25 24 24 23 21 19 21 22 22 23 23
32 31 30 30 31 32 32 32 30 30 30 29 30 29 29 30 31 31 31 31 30 29 29 29 30 32 33 32 31 30 30 29 28 28 28 29 30 28 25 25 24 25 26 25 25 24 23 23 24 22 22 22
31 30 29 29 29 29 29 30 30 30 29 28 29 29 29 30 31 32 32 32 31 30 29 29 29 30 31 32 32 31 30 29 28 27 27 26 28 28 28 26 24 24 25 26 26 25 25 25 26 25 22 21
30 30 28 29 30 29 26 26 27 29 29 28 30 29 27 28 30 31 33 33 32 31 30 29 28 28 29 31 31 31 30 29 28 28 28 26 25 26 27 27 26 25 24 24 25 26 26 27 27 26 23 21
30 30 29 29 31 30 27 25 25 26 27 28 31 30 27 26 27 29 31 33 33 32 31 29 28 28 28 29 30 31 30 29 27 27 27 27 26 25 25 26 27 27 27 25 24 25 26 28 28 28 26 23
31 31 31 31 32 32 29 27 26 25 24 27 31 31 29 28 28 28 29 31 33 33 33 31 29 28 27 27 28 29 30 29 28 26 25 26 26 26 24 25 25 26 28 28 25 24 25 27 30 31 28 26
31 32 32 33 33 33 31 30 29 26 24 27 31 30 30 31 32 31 29 29 31 32 33 33 31 29 27 27 26 27 28 29 28 27 26 24 25 26 24 23 24 24 26 28 28 25 23 24 28 32 32 29
32 32 33 33 34 33 32 31 30 27 26 28 29 29 29 31 35 36 32 30 30 31 32 33 32 31 29 27 26 25 25 26 26 25 25 24 22 23 24 23 23 24 25 26 27 28 25 23 24 27 30 30
31 32 32 32 33 32 31 30 29 28 27 27 26 26 28 30 34 36 34 34 33 32 31 32 32 32 30 28 26 25 23 23 24 24 23 23 22 20 21 22 21 22 24 23 23 25 27 26 23 20 22 24
31 32 31 32 32 30 30 30 29 29 28 26 22 21 25 30 32 32 33 36 36 33 31 31 31 31 30 29 27 26 24 22 22 23 22 22 22 20 18 18 18 18 20 20 20 19 20 22 22 20 17 16
31 32 31 31 30 29 29 30 30 30 29 25 21 21 26 29 28 29 32 35 34 33 33 32 31 29 29 29 28 26 25 23 22 22 21 20 20 20 19 17 16 16 16 18 18 15 13 14 15 15 15 14
31 32 31 30 30 30 31 32 32 31 29 26 25 26 27 27 26 28 31 32 32 32 33 33 32 30 29 28 28 26 25 23 22 20 20 20 18 18 19 18 17 15 14 14 15 13 10 9 8 10 16 18
31 32 31 30 31 31 33 34 33 31 30 29 29 30 29 27 27 28 28 27 28 30 31 32 33 32 31 29 27 26 25 23 22 20 19 19 18 17 17 17 17 15 14 12 11 10 8 5 7 13 17 17
31 32 32 31 31 32 33 34 34 32 32 32 32 31 30 28 26 26 25 26 27 28 30 31 31 32 33 31 28 26 25 24 22 21 19 18 18 17 16 16 16 16 15 13 11 10 8 7 8 11 12 12
Wind_Direction
19 18 17 14 11 7 2 359 356 354 354 352 343 336 338 335 330 334 337 335 333 335 339 342 338 336 336 336 340 343 342 334 325 328 332 329 321 311 311 308 283 268 258 249 246 244 240 237 236 236 235 234
22 22 22 20 19 17 12 7 2 358 357 356 350 340 339 340 339 337 336 336 333 334 335 332 329 327 329 330 330 333 338 339 332 325 324 321 321 321 320 317 305 306 313 290 255 246 241 235 233 234 234 234
23 23 23 22 22 21 18 15 10 5 0 357 353 344 337 340 344 340 335 334 334 334 331 325 324 325 328 329 328 330 331 333 337 328 318 314 313 314 316 319 312 309 322 334 335 293 254 236 223 225 227 229
23 23 22 21 21 21 20 18 15 11 6 1 356 348 338 338 340 338 335 335 336 333 328 322 321 321 322 328 330 331 331 329 332 329 319 315 309 301 302 307 306 306 312 317 321 312 293 271 224 216 215 213
23 22 20 18 17 18 18 17 16 14 11 7 2 356 346 339 336 337 337 339 342 340 336 329 322 316 317 329 332 330 333 331 330 328 321 316 304 298 295 289 290 297 302 299 298 303 299 284 265 257 234 201
23 21 19 17 15 14 14 13 14 13 12 11 8 5 358 350 342 341 342 341 341 343 344 338 327 317 315 325 330 329 331 334 335 329 323 319 314 308 297 284 284 292 295 289 285 292 292 277 272 273 270 254
20 19 17 15 13 12 10 10 9 9 10 10 10 8 6 2 354 349 347 343 339 339 341 339 333 327 322 318 320 324 328 332 333 327 320 318 318 315 305 299 293 285 284 281 277 279 276 272 272 264 260 267
18 15 14 12 11 10 8 7 6 5 5 5 6 6 6 5 2 357 352 347 341 337 336 336 334 331 328 322 316 316 321 325 319 316 315 312 309 304 300 306 307 291 280 278 273 268 268 272 274 266 255 257
15 12 10 9 8 7 6 5 4 2 1 1 0 1 2 2 2 0 357 353 347 342 337 334 332 330 330 329 324 315 317 320 307 299 304 304 302 299 298 298 298 295 285 281 277 271 270 270 273 274 262 251
12 9 7 6 5 3 2 2 0 360 358 358 356 355 355 355 357 357 358 356 353 349 343 337 334 333 333 333 332 324 319 318 307 294 292 298 301 299 298 298 298 296 286 279 278 279 275 267 266 269 262 250
8 7 5 3 1 359 358 358 356 356 355 355 353 352 351 350 350 351 353 354 353 352 349 345 340 337 336 335 335 332 326 319 307 297 291 292 299 298 296 297 296 292 285 279 277 281 278 265 256 252 250 248
6 4 1 359 357 355 353 352 351 351 351 349 348 348 348 346 346 346 346 348 349 350 349 347 344 341 338 335 334 333 333 326 312 301 298 292 289 292 295 295 292 288 283 279 275 276 277 267 259 251 245 245
3 0 358 355 353 352 350 348 348 348 347 345 344 344 343 343 342 341 341 342 343 344 344 344 343 341 339 337 334 331 332 332 325 309 302 299 292 284 283 288 292 291 286 280 277 276 278 277 273 263 252 246
359 357 356 355 355 354 353 351 350 348 347 346 344 343 342 341 339 338 337 337 337 338 339 339 339 338 338 337 336 333 330 331 332 323 310 303 298 289 280 282 292 295 290 284 281 278 278 280 281 276 264 252
356 355 356 357 357 357 356 355 353 351 349 348 346 345 344 342 340 338 335 334 333 333 334 335 335 335 334 334 334 333 331 329 329 329 323 314 307 297 285 279 281 286 286 285 283 281 281 282 281 278 273 261
353 354 355 357 358 359 358 357 355 352 351 348 347 346 344 343 341 339 336 334 331 330 330 331 331 332 332 331 331 330 329 328 327 326 325 321 316 308 295 281 270 264 266 273 278 280 282 282 279 274 270 263
354 356 356 357 358 359 360 359 357 355 352 349 346 345 343 342 341 339 338 336 333 330 328 328 328 329 329 329 328 328 326 325 324 323 322 320 318 313 304 290 274 264 260 261 262 266 274 276 276 273 268 263
356 358 359 358 357 357 358 359 359 356 353 350 346 344 342 340 339 338 337 336 334 332 329 326 326 326 327 327 327 326 325 324 322 321 321 320 317 315 312 304 290 275 264 259 256 255 258 263 267 268 268 266
356 358 359 359 357 355 355 355 356 356 354 351 347 345 343 339 337 336 336 335 334 333 330 327 325 325 325 326 326 326 325 324 322 319 319 320 318 314 313 311 303 292 278 266 257 252 250 252 256 256 258 265
357 358 357 358 357 355 353 351 351 351 352 351 349 346 343 340 337 335 334 334 333 333 332 328 326 324 323 324 325 326 326 325 323 320 318 318 318 316 313 311 308 303 293 280 267 257 249 245 248 248 246 253
354 355 354 353 355 356 354 350 346 344 346 348 348 347 344 341 337 334 333 332 332 332 331 329 327 324 322 321 323 325 325 325 325 324 321 318 318 317 314 311 307 304 302 293 281 269 256 246 242 241 237 241
350 352 350 349 351 353 352 350 345 341 341 340 341 343 343 343 339 335 332 330 330 330 330 329 327 325 322 320 320 322 324 325 324 323 321 320 319 319 317 314 309 304 303 301 294 284 271 257 247 242 236 233
345 346 345 345 346 348 348 348 346 343 337 333 334 336 337 340 341 338 333 329 328 327 327 328 326 325 323 321 319 318 320 322 323 323 322 320 319 319 320 319 314 307 302 301 299 296 290 276 262 252 243 236
341 342 341 341 341 342 344 345 345 344 337 331 332 332 332 334 336 337 335 330 327 325 324 325 325 325 323 321 319 317 317 320 323 326 325 325 323 320 320 317 314 311 306 302 297 295 299 294 279 264 253 245
337 338 337 337 337 338 340 342 342 341 335 332 331 330 328 328 328 330 331 330 328 325 323 322 322 323 322 321 320 319 318 319 321 325 325 325 325 324 323 320 317 315 312 308 302 295 292 297 295 277 262 255
333 335 334 333 333 334 336 337 337 335 332 331 329 324 320 319 321 323 324 327 326 324 322 321 320 320 321 321 320 318 317 316 317 319 322 323 322 323 325 327 326 324 320 316 313 308 298 298 305 294 273 263
329 331 330 329 329 331 331 330 331 330 329 329 325 314 307 310 315 317 317 320 321 320 319 319 319 318 319 319 318 317 316 315 315 316 319 323 324 324 323 325 328 333 331 324 319 317 310 307 311 309 296 276
324 326 326 325 325 325 323 323 324 324 325 325 318 306 303 308 311 309 310 313 315 316 316 316 317 316 316 317 317 316 314 314 315 316 317 321 325 325 323 322 326 334 337 333 330 325 317 315 316 312 309 301
318 322 322 322 320 318 317 318 319 321 323 321 314 308 306 307 303 301 304 307 309 311 312 313 314 314 314 315 316 314 312 311 311 313 315 318 322 325 326 325 326 329 329 332 337 338 332 325 320 309 312 314
312 316 318 317 315 315 314 315 316 318 319 316 312 309 306 303 299 300 302 303 303 305 307 309 310 311 313 314 315 313 311 309 307 309 310 313 316 320 323 323 323 323 322 322 324 332 338 325 306 305 312 320
306 311 314 313 311 311 311 311 313 314 313 312 311 308 306 303 300 299 299 299 299 299 300 302 303 307 310 312 313 312 310 308 306 305 306 309 311 313 317 318 319 319 318 317 311 310 312 302 296 302 310 322
Height
1535 1534 1532 1530 1528 1527 1525 1524 1523 1521 1520 1520 1519 1519 1518 1516 1515 1513 1512 1511 1509 1508 1506 1505 1503 1502 1501 1500 1498 1497 1496 1495 1494 1493 1492 1491 1489 1489 1488 1488 1489 1489 1488 1488 1488 1489 1490 1490 1493 1494 1495 1494
1535 1533 1532 1530 1528 1527 1525 1523 1522 1521 1520 1519 1519 1518 1517 1516 1515 1513 1511 1510 1508 1507 1506 1504 1503 1502 1500 1499 1498 1497 1496 1495 1494 1493 1492 1491 1489 1488 1488 1487 1488 1488 1489 1489 1487 1487 1487 1488 1491 1492 1493 1493
1535 1533 1532 1530 1528 1526 1525 1523 1522 1520 1520 1519 1518 1517 1517 1516 1514 1512 1511 1509 1508 1507 1505 1504 1502 1501 1500 1499 1498 1497 1495 1494 1493 1493 1492 1491 1489 1488 1488 1489 1488 1488 1489 1490 1488 1487 1487 1488 1489 1490 1492 1492
1535 1533 1532 1530 1529 1527 1525 1523 1521 1520 1519 1518 1517 1516 1515 1514 1513 1511 1510 1508 1507 1506 1505 1503 1502 1501 1500 1499 1498 1496 1495 1494 1493 1493 1492 1490 1490 1488 1488 1489 1489 1488 1489 1491 1490 1489 1488 1489 1489 1490 1490 1490
1535 1533 1532 1530 1528 1526 1524 1522 1521 1519 1518 1517 1516 1515 1514 1513 1511 1510 1509 1507 1506 1505 1503 1502 1501 1500 1499 1498 1497 1496 1494 1494 1493 1493 1491 1491 1490 1489 1488 1488 1488 1487 1488 1489 1490 1490 1489 1489 1490 1489 1489 1489
1535 1533 1531 1529 1527 1525 1523 1522 1520 1519 1518 1517 1515 1514 1513 1512 1510 1509 1508 1506 1505 1504 1503 1502 1501 1500 1499 1498 1497 1496 1494 1493 1493 1492 1491 1491 1490 1489 1488 1487 1487 1486 1487 1488 1489 1490 1489 1490 1490 1489 1489 1489
1534 1532 1530 1528 1526 1525 1523 1522 1521 1519 1518 1517 1515 1514 1513 1511 1510 1508 1507 1506 1505 1504 1503 1502 1500 1499 1499 1498 1497 1496 1495 1493 1493 1493 1492 1491 1491 1490 1489 1488 1487 1487 1487 1487 1488 1489 1489 1489 1490 1490 1490 1490
1533 1531 1530 1528 1527 1525 1524 1522 1521 1520 1518 1517 1515 1514 1512 1511 1510 1508 1507 1505 1504 1503 1502 1500 1499 1498 1497 1497 1497 1496 1495 1494 1493 1493 1492 1492 1491 1491 1490 1489 1488 1488 1488 1487 1487 1488 1488 1488 1489 1490 1490 1490
1532 1531 1529 1528 1527 1526 1525 1524 1522 1520 1518 1517 1515 1513 1512 1511 1509 1508 1506 1505 1503 1502 1500 1499 1498 1497 1496 1496 1496 1495 1494 1494 1492 1491 1491 1491 1491 1490 1490 1489 1488 1488 1487 1487 1486 1487 1487 1487 1488 1488 1489 1489
1533 1531 1530 1528 1527 1526 1525 1524 1522 1521 1519 1517 1515 1513 1511 1510 1509 1508 1506 1505 1503 1501 1500 1499 1498 1497 1496 1496 1495 1494 1493 1493 1492 1491 1490 1490 1490 1489 1489 1488 1488 1487 1487 1486 1486 1486 1486 1486 1486 1487 1487 1488
1533 1532 1531 1529 1528 1526 1525 1523 1522 1520 1519 1517 1515 1513 1511 1509 1508 1507 1506 1505 1503 1502 1500 1499 1498 1498 1496 1495 1494 1493 1493 1493 1492 1490 1489 1488 1488 1488 1488 1487 1487 1487 1486 1486 1485 1485 1485 1485 1485 1486 1486 1487
1533 1532 1531 1530 1528 1527 1525 1523 1522 1520 1518 1517 1515 1514 1512 1510 1508 1506 1505 1504 1503 1502 1501 1500 1498 1497 1497 1495 1494 1493 1492 1492 1492 1490 1489 1487 1486 1486 1486 1486 1486 1485 1485 1485 1484 1484 1484 1484 1485 1485 1485 1485
1533 1532 1530 1529 1528 1526 1525 1523 1521 1520 1518 1516 1515 1514 1512 1510 1508 1507 1505 1504 1503 1502 1501 1500 1499 1497 1496 1495 1493 1492 1491 1491 1490 1489 1488 1487 1486 1485 1484 1483 1484 1484 1484 1484 1483 1483 1483 1483 1483 1483 1483 1483
1532 1531 1530 1528 1526 1525 1524 1522 1521 1519 1518 1516 1514 1513 1512 1510 1508 1507 1505 1504 1502 1501 1500 1500 1499 1497 1496 1495 1493 1492 1491 1489 1489 1488 1487 1486 1485 1484 1483 1482 1482 1482 1482 1482 1482 1482 1482 1482 1482 1481 1481 1481
1532 1531 1529 1528 1526 1524 1522 1521 1519 1518 1516 1515 1514 1512 1511 1510 1508 1507 1505 1504 1502 1501 1500 1499 1498 1497 1496 1494 1493 1491 1490 1489 1488 1487 1486 1485 1483 1483 1482 1481 1480 1479 1479 1479 1480 1480 1479 1479 1479 1479 1479 1479
1532 1530 1529 1527 1526 1524 1522 1520 1519 1517 1515 1514 1512 1511 1510 1509 1507 1506 1505 1504 1502 1500 1499 1498 1497 1496 1495 1494 1492 1491 1489 1488 1487 1485 1484 1484 1482 1481 1480 1480 1479 1478 1476 1476 1477 1477 1477 1477 1477 1477 1478 1478
1530 1529 1527 1525 1524 1523 1522 1520 1518 1517 1515 1513 1512 1510 1509 1508 1507 1505 1504 1503 1502 1500 1499 1497 1496 1495 1494 1493 1492 1490 1489 1487 1486 1484 1482 1481 1481 1480 1478 1478 1477 1476 1474 1474 1474 1474 1474 1474 1475 1476 1476 1476
1530 1528 1526 1524 1523 1522 1520 1519 1518 1516 1515 1513 1511 1510 1508 1507 1506 1504 1503 1502 1501 1500 1499 1497 1495 1494 1492 1491 1490 1489 1488 1486 1485 1483 1481 1479 1478 1478 1477 1476 1474 1473 1472 1472 1472 1472 1471 1471 1471 1473 1473 1474
1529 1527 1526 1524 1522 1521 1519 1518 1517 1515 1514 1513 1511 1509 1508 1506 1505 1503 1502 1501 1500 1499 1498 1496 1495 1493 1491 1490 1489 1488 1486 1485 1484 1482 1481 1478 1476 1475 1475 1474 1472 1471 1470 1469 1469 1469 1469 1468 1468 1469 1470 1471
1528 1526 1525 1524 1522 1520 1519 1517 1515 1514 1513 1512 1510 1509 1507 1506 1504 1503 1501 1500 1499 1498 1497 1496 1494 1493 1491 1489 1487 1486 1485 1484 1482 1481 1480 1478 1476 1473 1472 1471 1469 1469 1469 1467 1466 1466 1466 1467 1466 1466 1466 1468
1526 1525 1524 1522 1521 1520 1518 1516 1514 1513 1512 1510 1509 1508 1507 1505 1504 1502 1501 1499 1498 1497 1496 1495 1493 1492 1490 1488 1487 1485 1483 1482 1481 1479 1478 1477 1476 1473 1470 1469 1467 1466 1466 1465 1463 1463 1464 1464 1464 1464 1463 1464
1525 1524 1523 1521 1520 1519 1517 1516 1514 1512 1510 1509 1507 1507 1506 1505 1503 1502 1500 1499 1497 1496 1495 1494 1492 1491 1490 1488 1486 1484 1482 1481 1480 1479 1477 1475 1474 1472 1470 1467 1464 1462 1462 1462 1461 1460 1461 1461 1461 1461 1461 1461
1524 1523 1521 1520 1518 1517 1516 1515 1514 1512 1510 1508 1506 1504 1503 1503 1502 1501 1500 1498 1496 1495 1493 1492 1491 1490 1488 1487 1485 1483 1482 1480 1478 1477 1476 1474 1472 1471 1469 1467 1464 1461 1460 1460 1459 1458 1458 1458 1458 1458 1458 1458
1523 1521 1520 1518 1517 1515 1514 1513 1512 1510 1509 1507 1505 1503 1501 1500 1499 1499 1499 1497 1496 1494 1492 1491 1490 1489 1487 1486 1484 1482 1481 1479 1477 1475 1474 1473 1471 1469 1468 1466 1464 1461 1458 1457 1456 1455 1455 1455 1455 1455 1456 1455
1521 1520 1518 1517 1515 1514 1512 1511 1510 1509 1508 1506 1504 1502 1500 1498 1497 1496 1496 1495 1494 1493 1492 1490 1489 1487 1486 1485 1483 1481 1480 1478 1477 1475 1473 1472 1471 1468 1466 1464 1463 1460 1457 1455 1453 1452 1452 1453 1453 1452 1452 1453
1520 1519 1517 1516 1514 1512 1511 1510 1509 1507 1507 1505 1503 1501 1499 1498 1496 1494 1493 1493 1492 1491 1490 1489 1487 1486 1485 1483 1482 1480 1479 1478 1476 1475 1473 1471 1470 1468 1466 1463 1462 1459 1456 1455 1453 1450 1448 1449 1451 1450 1449 1449
1518 1517 1516 1514 1513 1511 1509 1508 1507 1506 1505 1504 1503 1502 1500 1498 1496 1493 1492 1491 1490 1489 1488 1487 1486 1485 1483 1482 1480 1479 1477 1476 1475 1473 1472 1470 1468 1467 1466 1464 1462 1460 1457 1455 1453 1451 1448 1447 1448 1447 1446 1445
1517 1516 1514 1513 1511 1509 1508 1507 1506 1504 1503 1502 1502 1501 1499 1497 1495 1492 1491 1489 1488 1486 1485 1485 1484 1483 1482 1481 1479 1477 1476 1474 1473 1472 1471 1470 1468 1466 1465 1463 1462 1460 1458 1456 1453 1452 1449 1447 1447 1446 1444 1442
1514 1514 1512 1511 1509 1508 1506 1505 1503 1502 1500 1499 1499 1498 1496 1495 1493 1491 1490 1488 1486 1484 1483 1482 1481 1481 1480 1479 1478 1476 1474 1473 1472 1471 1470 1469 1468 1466 1464 1462 1461 1460 1458 1457 1455 1453 1451 1449 1447 1447 1445 1442
1512 1511 1510 1508 1507 1505 1503 1502 1500 1499 1498 1496 1495 1494 1493 1492 1491 1489 1488 1486 1484 1483 1481 1480 1479 1478 1477 1477 1476 1474 1473 1472 1471 1470 1469 1468 1466 1465 1464 1462 1460 1459 1458 1457 1455 1454 1452 1451 1449 1447 1445 1443
1509 1508 1507 1506 1504 1503 1501 1499 1497 1497 1495 1494 1492 1491 1489 1488 1488 1487 1486 1484 1483 1481 1480 1478 1477 1476 1475 1474 1474 1472 1471 1469 1469 1468 1467 1466 1465 1464 1463 1461 1459 1458 1456 1455 1454 1453 1452 1451 1450 1448 1446 1445